Weather Roundup
Issued by NWS

Home | Current Version | Previous Version | Graphics & Text | Print | Product List | Glossary Off
Versions: 1 2 3 4 5 6 7 8 9 10 11 12 13 14 15 16 17 18 19 20 21 22 23 24 25 26 27 28 29 30 31 32 33 34 35 36 37 38 39 40 41 42 43 44 45 46 47 48 49 50

000
NZUS93 KARX 020610
HRRWXR

CURRENT HOURLY OBSERVATIONS ACROSS
MUCH OF THE UPPER MISSISSIPPI VALLEY
NATIONAL WEATHER SERVICE LA CROSSE WI
100 AM CDT TUE SEP 02 2014


...SOUTHEAST MINNESOTA...


CITY           SKY/WX    TMP DP  RH WIND       PRES   REMARKS
ROCHESTER      FAIR      58  55  90 S5        29.87R
ROCHESTER/MAYO FAIR      61  56  85 CALM      29.87R
WINONA         FAIR      61  59  94 CALM      29.86R
AUSTIN         FAIR      57  55  94 CALM      29.87R
ALBERT LEA     FAIR      61  59  94 CALM      29.87S
DODGE CENTER   FAIR      57  55  94 SW6       29.86S
PRESTON        FAIR      59  59 100 CALM      29.88R
OWATONNA       FAIR      61  55  82 SW3       29.85S
FARIBAULT      FAIR      64  55  72 S6        29.85S
$$

...ELSEWHERE IN MINNESOTA...


CITY           SKY/WX    TMP DP  RH WIND       PRES   REMARKS
MINNEAPOLIS    FAIR      65  59  81 W8        29.82R
INTNL FALLS    FAIR      49  48  97 SW6       29.73S
DULUTH         FAIR      56  50  80 W7        29.77R
RED WING       FAIR      57  57 100 CALM      29.82R
REDWOOD FALLS  MOCLDY    63  56  78 W7        29.85R
MANKATO        FAIR      61  54  77 SW7       29.84S
WORTHINGTON    FAIR      61  55  82 W9        29.89S
FAIRMONT       FAIR      57  54  88 S6        29.86S
$$

...SOUTHWEST WISCONSIN...


CITY           SKY/WX    TMP DP  RH WIND       PRES   REMARKS
LA CROSSE      FAIR      63  60  90 SE5       29.85R
PRAIRIE DU CHI FAIR      60  58  93 CALM      29.86S
BOSCOBEL       FOG       59  57  93 CALM      29.87S VSB 1/4
LONE ROCK      HAZE      62  57  83 CALM      29.86S VSB 3/4
PLATTEVILLE    FAIR      64  62  91 CALM      29.88R
FORT MC COY    FAIR      56  55  97 SE3       29.86F
CAMP DOUGLAS   FAIR      55  55 100 SE3       29.86S FOG
VIROQUA        FAIR      60  60 100 SW5       29.89R
WIS DELLS      FAIR      61  58  91 CALM      29.87R
$$

...ELSEWHERE IN WISCONSIN...


CITY           SKY/WX    TMP DP  RH WIND       PRES   REMARKS
MILWAUKEE      MOCLDY    69  63  81 W6        29.84S
MADISON        FAIR      66  61  84 CALM      29.86R
GREEN BAY      FAIR      60  58  92 W6        29.82R
EAU CLAIRE     FAIR      59  58  96 SW7       29.82R
BLACK RVR FLS    N/A     56  56 100 CALM      29.84S FOG
MEDFORD        FAIR      55  53  94 S3        29.84R
WAUSAU         FAIR      57  55  93 CALM      29.83R
WIS RAPIDS     FAIR      57  56  96 CALM      29.87R FOG
MARSHFIELD     FAIR      59  55  87 W7        29.85R
RICE LAKE      FAIR      55  54  95 CALM      29.82S
$$

...NORTHEAST IOWA...


CITY           SKY/WX    TMP DP  RH WIND       PRES   REMARKS
WATERLOO       FAIR      63  61  93 SW3       29.88R
DUBUQUE        FAIR      63  61  93 CALM      29.88R
DECORAH        FAIR      61  59  94 CALM      29.88R
MASON CITY     FAIR      59  57  93 CALM      29.90R
CHARLES CITY   FAIR      59  57  94 NW3       29.89R
OELWEIN        FAIR      59  59 100 SW5       29.89R
$$

...ELSEWHERE IN IOWA...


CITY           SKY/WX    TMP DP  RH WIND       PRES   REMARKS
DES MOINES     FAIR      66  62  87 W3        29.90R
IOWA CITY      FAIR      65  63  93 CALM      29.89R
FORT DODGE     FAIR      61  59  94 CALM      29.91R
MARSHALLTOWN   FAIR      62  60  93 W5        29.89R
CEDAR RAPIDS   FAIR      63  63 100 SW3       29.88R
$$

...NORTHERN ILLINOIS...


CITY           SKY/WX    TMP DP  RH WIND       PRES   REMARKS
CHICAGO-OHARE  MOCLDY    71  65  81 SW3       29.86S
DUPAGE         FAIR      69  66  90 S3        29.86F
CHICAGO-MIDWAY CLOUDY    75  68  78 SW7       29.87R
MOLINE         FAIR      69  67  93 W3        29.86S
ROCKFORD       MOCLDY    68  65  90 CALM      29.86F
STERLING       FAIR      70  64  83 N3        29.85F
PEORIA         FAIR      72  66  81 SW5       29.89R
$$

NOTE: "FAIR" INDICATES FEW OR NO CLOUDS BELOW 12,000 FEET WITH NO
SIGNIFICANT WEATHER AND/OR OBSTRUCTIONS TO VISIBILITY. WIND
SPEEDS ARE IN MILES-PER-HOUR.



USA.gov is the U.S. government's official web portal to all federal, state and local government web resources and services.